ORBCOMM FM36 [-]

Last updated on Fri Dec 29 2023 00:02:54 GMT+0000 (Coordinated Universal Time)

1 25984U 99065E 23361.67585789 .00002040 00000+0 75902-3 0 9998 2 25984 45.0391 111.4783 0003618 146.2668 213.8410 14.34996961257137
UTC large
Height (km)
Speed (km/s)
/
Latitude / Longitude
Inclination (degrees)
Orbital Period (minutes)
Azimuth
Elevation
Range (km)
Doppler Factor

Next 0 passes for location: London (51.5072 / 0.1276)

Sorry there are no passes over London.